Weather in Berezhani

Ukraine / Ternopil District     49˚26′49″N   24˚56′27″E
temp.,
°C
wind,
m/s
gust,
m/s
humid.,
%
clouds,
%
prec.,
mm/h
press.,
hPa
HPBL,
m
29 november, sun
sun2923:00−1˚nnw4591100 0.7 1020391
02:00−2˚wnw3492100 0.7 1020349
05:00−2˚nw239399 0.1 1020260
08:00−2˚wsw2394100 0.3 1020217
11:00−1˚w348398 0.0 1020520
14:00wsw238598 0.2 1020447
17:00−1˚w2289100 0.1 1021107
20:00−2˚wsw239465 0.1 102288
30 november, mon
mon3023:00−2˚wsw249539 0.1 1023188
02:00−3˚w249840 0.1 1024180
05:00−3˚wnw349382 0.0 1024303
08:00−3˚wnw238690 0.0 1026417
11:00−2˚w2377100 0.0 1027563
14:00−1˚nw3374100 0.0 1027727
17:00−1˚nw127792 0.0 1028130
20:00−2˚wnw117791 0.0 1029115
1 december, tue
tue123:00−2˚wsw117995 0.0 102964
02:00−3˚ssw118667 0.0 102824
05:00−4˚sse22850 0.0 102872
08:00−4˚se36850 0.0 1029223
11:00−2˚se46730 0.0 1028467
14:00−1˚se46690 0.0 1027505
17:00−3˚ese37790 0.0 1027182
20:00−3˚ese48790 0.0 1028257
2 december, wed
wed223:00−3˚ese37850 0.0 1027227
02:00−4˚e35890 0.0 1027147
05:00−4˚e36957 0.0 1026174
08:00−4˚e359724 0.0 1025142
11:00−1˚ese359073 0.0 1025312
14:00ese348886 0.0 1023423
17:00ese3590100 0.0 1023255
20:00−1˚se3692100 0.1 1023289
3 december, thu
thu323:00−1˚se2690100 0.0 1023337
02:00−1˚se369399 0.0 1022424
05:00−1˚se5883100 0.0 1022603
08:00−1˚sse698699 0.0 1022604
11:00se6108189 0.0 1021502
14:00+1˚se6107953 0.0 1020520
17:00−1˚se6129023 0.0 1019437
20:00−2˚se7139139 0.0 1019460